[keps] orb06271.amsat

Ray Hoad r.hoad at att.net
Thu Sep 28 19:57:48 PDT 2006


SB KEPS @ AMSAT  $ORB06271.O
Orbital Elements  06271.OSCAR

HR AMSAT ORBITAL ELEMENTS FOR OSCAR SATELLITES
FROM WA5QGD FORT WORTH,TX September 28, 2006
Send SUBSCRIBE KEPS/UNSUBSCRIBE KEPS to majordomo at amsat.org only
BID: ORB06271.O
TO ALL RADIO AMATEURS BT

Satellite: AO-07
Catalog number: 07530
Epoch time:      06270.65808090
Element set:    0692
Inclination:      101.5581 deg
RA of node:       310.9901 deg
Eccentricity:    0.0012101
Arg of perigee:   047.5070 deg
Mean anomaly:     312.7018 deg
Mean motion:   12.53571456 rev/day
Decay rate:       -2.8e-07 rev/day^2
Epoch rev:           45822
Checksum:              266

Satellite: UO-11
Catalog number: 14781
Epoch time:      06270.64893804
Element set:    0186
Inclination:      098.2070 deg
RA of node:       283.0451 deg
Eccentricity:    0.0008311
Arg of perigee:   300.1718 deg
Mean anomaly:     059.8646 deg
Mean motion:   14.79463273 rev/day
Decay rate:      -1.65e-06 rev/day^2
Epoch rev:           21091
Checksum:              297

Satellite: RS-10/11
Catalog number: 18129
Epoch time:      06270.95417891
Element set:    0123
Inclination:      082.9214 deg
RA of node:       252.1266 deg
Eccentricity:    0.0011612
Arg of perigee:   159.6880 deg
Mean anomaly:     200.4734 deg
Mean motion:   13.72778908 rev/day
Decay rate:        2.4e-07 rev/day^2
Epoch rev:           96525
Checksum:              303

Satellite: RS-15
Catalog number: 23439
Epoch time:      06270.89845078
Element set:    0040
Inclination:      064.8161 deg
RA of node:       071.1039 deg
Eccentricity:    0.0166181
Arg of perigee:   236.3669 deg
Mean anomaly:     122.1303 deg
Mean motion:   11.27552021 rev/day
Decay rate:       -3.9e-07 rev/day^2
Epoch rev:           48412
Checksum:              281

Satellite: FO-29
Catalog number: 24278
Epoch time:      06270.96642649
Element set:    0334
Inclination:      098.5185 deg
RA of node:       261.3047 deg
Eccentricity:    0.0351445
Arg of perigee:   043.1803 deg
Mean anomaly:     319.6327 deg
Mean motion:   13.52923843 rev/day
Decay rate:       -3.4e-07 rev/day^2
Epoch rev:           49944
Checksum:              325

Satellite: SO-33
Catalog number: 25509
Epoch time:      06270.43296753
Element set:    0755
Inclination:      031.4361 deg
RA of node:       271.2666 deg
Eccentricity:    0.0354971
Arg of perigee:   290.3725 deg
Mean anomaly:     065.9089 deg
Mean motion:   14.28121150 rev/day
Decay rate:        7.1e-07 rev/day^2
Epoch rev:           41366
Checksum:              304

Satellite: VO-52
Catalog number: 28650
Epoch time:      06270.80681274
Element set:     439
Inclination:      097.8634 deg
RA of node:       341.9761 deg
Eccentricity:    0.0027851
Arg of perigee:   030.0099 deg
Mean anomaly:     330.2687 deg
Mean motion:   14.81176866 rev/day
Decay rate:       -4.6e-07 rev/day^2
Epoch rev:            7557
Checksum:              330

/EX
SB KEPS @ AMSAT  $ORB06271.D
Orbital Elements  06271.MICROS

HR AMSAT ORBITAL ELEMENTS FOR THE MICROSATS
FROM WA5QGD FORT WORTH,TX September 28, 2006
Send SUBSCRIBE KEPS/UNSUBSCRIBE KEPS to majordomo at amsat.org only
BID: ORB06271.D
TO ALL RADIO AMATEURS BT

Satellite: AO-16
Catalog number: 20439
Epoch time:      06270.81200741
Element set:     855
Inclination:      098.1895 deg
RA of node:       274.9949 deg
Eccentricity:    0.0009984
Arg of perigee:   249.0508 deg
Mean anomaly:     110.9595 deg
Mean motion:   14.31733862 rev/day
Decay rate:       -1.3e-07 rev/day^2
Epoch rev:           87100
Checksum:              323

Satellite: LO-19
Catalog number: 20442
Epoch time:      06270.54525718
Element set:     789
Inclination:      098.1870 deg
RA of node:       284.2637 deg
Eccentricity:    0.0010988
Arg of perigee:   248.4980 deg
Mean anomaly:     111.5047 deg
Mean motion:   14.31976313 rev/day
Decay rate:       -4.1e-07 rev/day^2
Epoch rev:           87110
Checksum:              315

Satellite: AO-27
Catalog number: 22825
Epoch time:      06271.50242859
Element set:     506
Inclination:      098.2954 deg
RA of node:       248.3180 deg
Eccentricity:    0.0008129
Arg of perigee:   322.1121 deg
Mean anomaly:     037.9492 deg
Mean motion:   14.29184257 rev/day
Decay rate:       -5.5e-07 rev/day^2
Epoch rev:           67811
Checksum:              307

Satellite: IO-26
Catalog number: 22826
Epoch time:      06270.68463566
Element set:     198
Inclination:      098.2889 deg
RA of node:       248.7133 deg
Eccentricity:    0.0008590
Arg of perigee:   322.2514 deg
Mean anomaly:     037.8055 deg
Mean motion:   14.29428595 rev/day
Decay rate:       -8.0e-08 rev/day^2
Epoch rev:           67807
Checksum:              344

Satellite: PO-28
Catalog number: 22829
Epoch time:      06270.76864777
Element set:    0482
Inclination:      098.2786 deg
RA of node:       249.9905 deg
Eccentricity:    0.0009036
Arg of perigee:   294.4457 deg
Mean anomaly:     065.5772 deg
Mean motion:   14.30124026 rev/day
Decay rate:      -1.06e-06 rev/day^2
Epoch rev:           67830
Checksum:              342

Satellite: GO-32
Catalog number: 25397
Epoch time:      06271.68389195
Element set:     120
Inclination:      098.4552 deg
RA of node:       324.7898 deg
Eccentricity:    0.0000468
Arg of perigee:   287.1682 deg
Mean anomaly:     072.9458 deg
Mean motion:   14.23112002 rev/day
Decay rate:       1.06e-06 rev/day^2
Epoch rev:           42696
Checksum:              320

Satellite: MO-46
Catalog number: 26548
Epoch time:      06271.68910358
Element set:     607
Inclination:      064.5566 deg
RA of node:       271.5949 deg
Eccentricity:    0.0042553
Arg of perigee:   232.6334 deg
Mean anomaly:     127.0890 deg
Mean motion:   14.83023888 rev/day
Decay rate:       1.83e-06 rev/day^2
Epoch rev:           32475
Checksum:              330

Satellite: NO-44
Catalog number: 26931
Epoch time:      06270.85283452
Element set:    0412
Inclination:      067.0499 deg
RA of node:       103.2328 deg
Eccentricity:    0.0005247
Arg of perigee:   252.9142 deg
Mean anomaly:     107.1374 deg
Mean motion:   14.29452633 rev/day
Decay rate:      -1.71e-06 rev/day^2
Epoch rev:           26060
Checksum:              281

Satellite: SO-50
Catalog number: 27607
Epoch time:      06271.83046588
Element set:     132
Inclination:      064.5591 deg
RA of node:       158.4753 deg
Eccentricity:    0.0035394
Arg of perigee:   104.0245 deg
Mean anomaly:     256.4773 deg
Mean motion:   14.71175718 rev/day
Decay rate:       -5.5e-07 rev/day^2
Epoch rev:           20267
Checksum:              309

Satellite: CO-55
Catalog number: 27844
Epoch time:      06270.65245492
Element set:     858
Inclination:      098.7230 deg
RA of node:       277.5329 deg
Eccentricity:    0.0010341
Arg of perigee:   124.2855 deg
Mean anomaly:     235.9287 deg
Mean motion:   14.20459016 rev/day
Decay rate:        2.3e-07 rev/day^2
Epoch rev:           16820
Checksum:              309

Satellite: CO-57
Catalog number: 27848
Epoch time:      06271.55601309
Element set:     824
Inclination:      098.7222 deg
RA of node:       277.7258 deg
Eccentricity:    0.0010157
Arg of perigee:   125.2872 deg
Mean anomaly:     234.9259 deg
Mean motion:   14.20285743 rev/day
Decay rate:        4.1e-07 rev/day^2
Epoch rev:           16831
Checksum:              314

Satellite: AO-51
Catalog number: 28375
Epoch time:      06270.66830295
Element set:    0640
Inclination:      098.1540 deg
RA of node:       317.9772 deg
Eccentricity:    0.0083298
Arg of perigee:   258.0041 deg
Mean anomaly:     101.1806 deg
Mean motion:   14.40534209 rev/day
Decay rate:        1.7e-07 rev/day^2
Epoch rev:           11792
Checksum:              296

Satellite: CO-56
Catalog number: 28941
Epoch time:      06270.94631379
Element set:    0235
Inclination:      098.1708 deg
RA of node:       299.6038 deg
Eccentricity:    0.0269221
Arg of perigee:   113.7552 deg
Mean anomaly:     249.2169 deg
Mean motion:   15.28224741 rev/day
Decay rate:     1.6552e-04 rev/day^2
Epoch rev:           03322
Checksum:              324

/EX
SB KEPS @ AMSAT  $ORB06271.W
Orbital Elements  06271.WEATHER

HR AMSAT ORBITAL ELEMENTS FOR WEATHER SATELLITES
FROM WA5QGD FORT WORTH,TX September 28, 2006
Send SUBSCRIBE KEPS/UNSUBSCRIBE KEPS to majordomo at amsat.org only
BID: ORB06271.W
TO ALL RADIO AMATEURS BT

Satellite: NOAA-10
Catalog number: 16969
Epoch time:      06270.56351528
Element set:    0362
Inclination:      098.7595 deg
RA of node:       282.4173 deg
Eccentricity:    0.0011841
Arg of perigee:   210.1579 deg
Mean anomaly:     149.8929 deg
Mean motion:   14.27304798 rev/day
Decay rate:        5.2e-07 rev/day^2
Epoch rev:           04176
Checksum:              326

Satellite: NOAA-11
Catalog number: 19531
Epoch time:      06270.83407586
Element set:    0304
Inclination:      098.8249 deg
RA of node:       358.1308 deg
Eccentricity:    0.0012314
Arg of perigee:   059.8159 deg
Mean anomaly:     300.4232 deg
Mean motion:   14.14817251 rev/day
Decay rate:      -1.93e-06 rev/day^2
Epoch rev:           92905
Checksum:              297

Satellite: NOAA-12
Catalog number: 21263
Epoch time:      06270.79442166
Element set:    0798
Inclination:      098.7387 deg
RA of node:       263.6853 deg
Eccentricity:    0.0013055
Arg of perigee:   146.4126 deg
Mean anomaly:     213.7866 deg
Mean motion:   14.25508244 rev/day
Decay rate:        2.7e-07 rev/day^2
Epoch rev:           79886
Checksum:              334

Satellite: MET-3/5
Catalog number: 21655
Epoch time:      06270.92515554
Element set:    0186
Inclination:      082.5577 deg
RA of node:       188.2135 deg
Eccentricity:    0.0013498
Arg of perigee:   139.0363 deg
Mean anomaly:     221.1772 deg
Mean motion:   13.17007534 rev/day
Decay rate:        5.1e-07 rev/day^2
Epoch rev:           72688
Checksum:              306

